Location: Geroldsau
(48.7259°N, 8.2466°E)
Time: 04:20:36
(UTC+00:00)

Cosmos 1898 Rocket - Visible Passes

Search period start: 17 October 2021 00:00
Search period end: 27 October 2021 00:00
Orbit: 752 x 784 km, 74.0° (Epoch: 16 October)

Date Brightness Start Highest point End Pass type
(mag) Time Alt. Az. Time Alt. Az. Time Alt. Az.
17 Oct 6.1 18:03:34 10° W 18:06:46 16° NW 18:10:00 10° N visible
18 Oct 5.8 17:25:17 10° WSW 17:29:25 23° NW 17:33:35 10° N visible
20 Oct 6.3 17:56:47 10° WNW 17:58:30 11° NW 18:00:14 10° NNW visible
21 Oct 6.0 17:17:46 10° W 17:21:02 16° NW 17:24:19 10° N visible
24 Oct 6.2 17:10:57 10° WNW 17:12:46 12° NW 17:14:36 10° NNW visible
